User: anonymous   Login
Location: Caltech
(34.1382°N, 118.1253°W)
Time: 04:45:25
(UTC-07:00)
Language:

Cosmos 2333 Rocket - Orbit

View from above orbital plane
View from above orbital plane
View from above satellite
View from above satellite

Ground track
Ground track

The orbit data is extracted from the following two-line orbital elements,

1 24298U 96051B   15215.73152223 -.00000185  00000-0 -73734-4 0  9999
2 24298 070.8410 062.8758 0013877 125.1337 235.1086 14.12406065975310
Epoch (UTC): 03 August 2015 17:33:23
Eccentricity: 0.0013877
inclination: 70.8410°
perigee height: 841 km
apogee height: 861 km
right ascension of ascending node: 62.8758°
argument of perigee: 125.1337°
revolutions per day: 14.12406065
mean anomaly at epoch: 235.1086°
orbit number at epoch: 97531

The dashed part of the orbit path shows where the satellite is in the earth's shadow,  

DLR